Palma de Mallorca, Spain

12:32 AM CET on January 20, 2018 (GMT +0100)
Palma De Mallorca

Weather History for LEPA - September, 2011

Change the Weather History Date:

Tuesday, September 6, 2011

  Actual Average Record
Temperature  
Mean Temperature 76 °F -  
Max Temperature 84 °F 78 °F 95 °F (2016)
Min Temperature 69 °F 60 °F 53 °F (2007)
Cooling Degree Days 12    
Growing Degree Days 26 (Base 50)    
Moisture  
Dew Point 67 °F    
Average Humidity 73    
Maximum Humidity 94    
Minimum Humidity 48    
Precipitation  
Precipitation 0.00 in 0.07 in - ()
Sea Level Pressure  
Sea Level Pressure 30.24 in    
Wind  
Wind Speed 5 mph ()    
Max Wind Speed 14 mph    
Max Gust Speed -    
Visibility 7.0 miles    
Events      
Averages and records for this station are not official NWS values.
T = Trace of Precipitation, MM = Missing Value Source: Averaged Metar Reports

Daily Weather History Graph

Daily Weather History Graph

Search for Another Location

Airport or City:

Trip Planner

Search our weather history database for the weather conditions in past years. The results will help you decide how hot, cold, wet, or windy it might be!

Date:

Astronomy

Sep. 06, 2011 Rise Set
Actual Time 7:21 AM CEST 8:12 PM CEST
Civil Twilight 6:54 AM CEST 8:40 PM CEST
Nautical Twilight 6:21 AM CEST 9:12 PM CEST
Astronomical Twilight 5:47 AM CEST 9:46 PM CEST
Moon 4:35 PM CEST (9/6) 1:22 AM CEST (9/6)
Length of Visible Light 13h 46m
Length of Day
12h 51m
Waxing Gibbous, 68% of the Moon is Illuminated
Sep 6
Waxing Gibbous
Sep 12
Full
Sep 20
Last Quarter
Sep 27
New
Oct 4
First Quarter

Hourly Weather History & Observations

Time (CEST) Temp. Heat Index Dew Point Humidity Pressure Visibility Wind Dir Wind Speed Gust Speed Precip Events Conditions
12:00 AM 73.4 °F - 68.0 °F 83% 30.24 in 6.2 mi NE 5.8 mph - N/A   Partly Cloudy
12:30 AM 73.4 °F - 69.8 °F 88% 30.24 in 6.2 mi ENE 4.6 mph - N/A   Partly Cloudy
1:00 AM 73.4 °F - 68.0 °F 83% 30.24 in 6.2 mi ENE 4.6 mph - N/A   Partly Cloudy
1:30 AM 71.6 °F - 69.8 °F 94% 30.24 in 6.2 mi NE 5.8 mph - N/A   Partly Cloudy
2:00 AM 72 °F - 69 °F 86% 30.25 in 12 mi NE 4.6 mph - -   Scattered Clouds
2:00 AM 71.6 °F - 69.8 °F 94% 30.24 in 6.2 mi NE 4.6 mph - N/A   Partly Cloudy
2:30 AM 73.4 °F - 68.0 °F 83% 30.24 in 6.2 mi NE 6.9 mph - N/A   Partly Cloudy
3:00 AM 73.4 °F - 68.0 °F 83% 30.24 in 6.2 mi NE 4.6 mph - N/A   Partly Cloudy
3:30 AM 71.6 °F - 68.0 °F 88% 30.24 in 6.2 mi NE 4.6 mph - N/A   Partly Cloudy
4:00 AM 71.6 °F - 66.2 °F 83% 30.24 in 6.2 mi NE 4.6 mph - N/A   Partly Cloudy
4:30 AM 71.6 °F - 66.2 °F 83% 30.24 in 6.2 mi ENE 3.5 mph - N/A   Partly Cloudy
5:00 AM 69.8 °F - 66.2 °F 88% 30.24 in 6.2 mi East 2.3 mph - N/A   Partly Cloudy
5:30 AM 69.8 °F - 66.2 °F 88% 30.24 in 6.2 mi NE 2.3 mph - N/A   Partly Cloudy
6:00 AM 69.8 °F - 68.0 °F 94% 30.24 in 6.2 mi ENE 1.2 mph - N/A   Partly Cloudy
6:30 AM 69.8 °F - 68.0 °F 94% 30.24 in 6.2 mi NE 3.5 mph - N/A   Partly Cloudy
7:00 AM 71.6 °F - 68.0 °F 88% 30.24 in 6.2 mi ENE 2.3 mph - N/A   Partly Cloudy
7:30 AM 71.6 °F - 66.2 °F 83% 30.24 in 6.2 mi ENE 4.6 mph - N/A   Partly Cloudy
8:00 AM 71 °F - 66 °F 81% 30.26 in 17 mi Calm Calm - -   Scattered Clouds
8:00 AM 71.6 °F - 66.2 °F 83% 30.24 in 6.2 mi NE 4.6 mph - N/A   Partly Cloudy
8:30 AM 73.4 °F - 66.2 °F 78% 30.27 in 6.2 mi NE 3.5 mph - N/A   Partly Cloudy
9:00 AM 75.2 °F - 66.2 °F 73% 30.27 in 6.2 mi ENE 4.6 mph - N/A   Partly Cloudy
9:30 AM 77.0 °F - 66.2 °F 69% 30.27 in 6.2 mi East 5.8 mph - N/A   Partly Cloudy
10:00 AM 78.8 °F - 64.4 °F 61% 30.27 in 6.2 mi ENE 4.6 mph - N/A   Partly Cloudy
10:30 AM 80.6 °F 82.3 °F 64.4 °F 58% 30.27 in 6.2 mi East 5.8 mph - N/A   Partly Cloudy
11:00 AM 80.6 °F 82.3 °F 64.4 °F 58% 30.27 in 6.2 mi ESE 3.5 mph - N/A   Partly Cloudy
11:30 AM 82.4 °F 83.4 °F 62.6 °F 51% 30.27 in 6.2 mi ENE 3.5 mph - N/A   Partly Cloudy
12:00 PM 84.2 °F 85.0 °F 62.6 °F 48% 30.27 in 6.2 mi WSW 1.2 mph - N/A   Partly Cloudy
12:30 PM 82.4 °F 83.9 °F 64.4 °F 54% 30.27 in 6.2 mi SSW 6.9 mph - N/A   Partly Cloudy
1:00 PM 82.4 °F 84.6 °F 66.2 °F 58% 30.27 in 6.2 mi SSW 12.7 mph - N/A   Partly Cloudy
1:30 PM 82.4 °F 84.6 °F 66.2 °F 58% 30.27 in 6.2 mi SSW 11.5 mph - N/A   Partly Cloudy
2:00 PM 82 °F - 67 °F 51% 30.27 in 19 mi SW 12.7 mph - -   Scattered Clouds
2:00 PM 82.4 °F 85.4 °F 68.0 °F 62% 30.27 in 6.2 mi SSW 13.8 mph - N/A   Partly Cloudy
2:30 PM 82.4 °F 85.4 °F 68.0 °F 62% 30.27 in 6.2 mi SW 13.8 mph - N/A   Partly Cloudy
3:00 PM 82.4 °F 84.6 °F 66.2 °F 58% 30.24 in 6.2 mi SW 13.8 mph - N/A   Partly Cloudy
3:30 PM 82.4 °F 84.6 °F 66.2 °F 58% 30.24 in 6.2 mi SSW 13.8 mph - N/A   Partly Cloudy
4:00 PM 80.6 °F 82.7 °F 66.2 °F 61% 30.24 in 6.2 mi SSW 12.7 mph - N/A   Partly Cloudy
4:30 PM 80.6 °F 82.7 °F 66.2 °F 61% 30.24 in 6.2 mi SSW 12.7 mph - N/A   Partly Cloudy
5:00 PM 82.4 °F 85.4 °F 68.0 °F 62% 30.24 in 6.2 mi SSW 12.7 mph - N/A   Partly Cloudy
5:30 PM 82.4 °F 85.4 °F 68.0 °F 62% 30.21 in 6.2 mi SSW 11.5 mph - N/A   Partly Cloudy
6:00 PM 80.6 °F 83.2 °F 68.0 °F 65% 30.21 in 6.2 mi SSW 10.4 mph - N/A   Partly Cloudy
6:30 PM 80.6 °F 83.9 °F 69.8 °F 70% 30.21 in 6.2 mi SSW 11.5 mph - N/A   Partly Cloudy
7:00 PM 80.6 °F 83.9 °F 69.8 °F 70% 30.21 in 6.2 mi SSW 9.2 mph - N/A   Partly Cloudy
7:30 PM 78.8 °F - 69.8 °F 74% 30.21 in 6.2 mi SSW 8.1 mph - N/A   Partly Cloudy
8:00 PM 79 °F - 69 °F 65% 30.23 in 19 mi SW 9.2 mph - -   Scattered Clouds
8:00 PM 78.8 °F - 69.8 °F 74% 30.21 in 6.2 mi SSW 8.1 mph - N/A   Partly Cloudy
8:30 PM 78.8 °F - 69.8 °F 74% 30.21 in 6.2 mi SSW 5.8 mph - N/A   Partly Cloudy
9:00 PM 78.8 °F - 69.8 °F 74% 30.21 in 6.2 mi SSW 4.6 mph - N/A   Partly Cloudy
9:30 PM 78.8 °F - 69.8 °F 74% 30.24 in 6.2 mi Variable 2.3 mph - N/A   Partly Cloudy
10:00 PM 78.8 °F - 69.8 °F 74% 30.24 in 6.2 mi Variable 2.3 mph - N/A   Partly Cloudy
10:30 PM 77.0 °F - 69.8 °F 78% 30.24 in 6.2 mi SSE 1.2 mph - N/A   Partly Cloudy
11:00 PM 77.0 °F - 69.8 °F 78% 30.24 in 6.2 mi SSE 2.3 mph - N/A   Partly Cloudy
11:30 PM 75.2 °F - 69.8 °F 83% 30.24 in 6.2 mi SSE 2.3 mph - N/A   Partly Cloudy